Location: PSU-Greenbush Astrophysical Observatory
(37.5140°N, 94.9880°W)
Time: 18:09:31
(UTC-06:00)

deb Explorer IX - Pass Details

Date: 30 January 2020
Orbit: 549 x 1099 km, 38.8° (Epoch: 24 February)

Event Time Altitude Azimuth Distance (km) Brightness Sun altitude
Rises 18:15:33 0° 212° (SSW) 3,253 ? -7.2°
Reaches altitude 10° 18:18:12 10° 200° (SSW) 2,420 ? -7.7°
Maximum altitude 18:23:04 28° 143° (SE) 1,639 ? -8.6°
Enters shadow 18:28:19 11° 89° (E) 2,683 ? -9.7°
Drops below altitude 10° 18:28:31 10° 88° (E) 2,746 - -9.7°
Sets 18:31:43 0° 77° (ENE) 3,774 - -10.3°
